Overview Statistics Trail Chart Weather Telemetry Raw packets
 

This is the latest recevied weather packets stored in our database for station/object KN1OBI-13. If no packets are shown the sender has not sent any weather packets the latest 10 day(s).

<< 21 22 23 24 25 26 27 >>
Time Temp. Humidity Pressure Rain* Wind** Luminosity Snow
1788294992 16.11° C 97% 997.4 hPa 0 mm - - -
1788294392 16.11° C 97% 997.1 hPa 0.51 mm - - -
1788293792 16.11° C 97% 997.2 hPa 1.78 mm - - -
1788293192 16.11° C 97% 997.2 hPa 2.79 mm - - -
1788292592 16.11° C 97% 997.3 hPa 3.56 mm - - -
1788291992 16.67° C 97% 997.3 hPa 3.56 mm - - -
1788291392 16.11° C 97% 997.3 hPa 4.06 mm - - -
1788290792 16.11° C 97% 997.3 hPa 3.56 mm - - -
1788290192 16.11° C 97% 997.3 hPa 3.56 mm - - -
1788289592 16.67° C 96% 997.5 hPa 4.06 mm - - -
1788288992 16.67° C 97% 997.4 hPa 4.06 mm - - -
1788288392 16.67° C 96% 997.3 hPa 4.06 mm - - -
1788287792 16.67° C 96% 997.4 hPa 5.33 mm - - -
1788287192 16.67° C 96% 997.2 hPa 5.33 mm - - -
1788286592 16.67° C 96% 997 hPa 3.56 mm - - -
1788285992 16.67° C 96% 997 hPa 0.51 mm - - -
1788285392 16.67° C 96% 997 hPa 0 mm - - -
1788284792 16.67° C 96% 997 hPa 0 mm - - -
1788284192 17.22° C 96% 996.7 hPa 2.79 mm - - -
1788283594 17.22° C 96% 996.6 hPa 4.06 mm - - -
1788282992 17.22° C 95% 996.6 hPa 6.6 mm - - -
1788282392 17.22° C 95% 996.3 hPa 5.84 mm - - -
1788281792 17.78° C 94% 996.5 hPa 6.6 mm - - -
1788281192 17.78° C 95% 996.8 hPa 2.79 mm - - -
1788280592 18.33° C 94% 996.9 hPa 1.78 mm - - -

* Rain latest hour (hover to see other rain measurements)
** Current wind speed in m/s (hover to see current wind gust speed)